Regional Weather Roundup
Issued by NWS

Home | Current Version | Previous Version | Text Only | Print | Product List | Glossary Off
Versions: 1 2 3 4 5 6 7 8 9 10 11 12 13 14 15 16 17 18 19 20 21 22 23 24 25 26 27 28 29 30 31 32 33 34 35 36 37 38 39 40 41 42 43 44 45 46

000
ASUS45 KSLC 030310
RWRUT

UTAH REGIONAL WEATHER ROUNDUP
NATIONAL WEATHER SERVICE SALT LAKE CITY UT
900 PM MDT WED SEP 02 2015

UTZ001>011-023>025-030400-

NORTHERN UTAH

CITY           SKY/WX    TMP DP  RH WIND       PRES   REMARKS
BRIGHAM CITY   PTCLDY    78  46  32 SE5       29.85R
HILL AFB       PTCLDY    75  42  30 S10       29.89R
LOGAN          CLEAR     75  44  33 SE8       29.86S
OGDEN          PTCLDY    80  44  27 SE7       29.86R
PROVO AIRPORT  PTCLDY    75  45  33 SE6       29.91R
SALT LAKE CITY PTCLDY    83  40  21 S12       29.85R
VERNAL         PTCLDY    77  38  24 S9        30.01R
WENDOVER       CLEAR     82  34  17 SW5       29.80S
HEBER CITY     CLEAR     77  34  20 CALM      29.99R
WEST JORDAN    CLEAR     79  39  24 S9        29.90R

$$

UTZ012>022-026-027-030400-

SOUTHERN/CENTRAL UTAH

CITY           SKY/WX    TMP DP  RH WIND       PRES   REMARKS
BLANDING       CLOUDY    76  43  30 S15       30.20R
BRYCE CANYON   PTCLDY    62  34  35 S9        30.25R
CEDAR CITY     PTCLDY    73  37  27 S10       30.07R
DELTA          MOCLDY    80  26  14 S16       29.94R
HANKSVILLE     MOCLDY    84  36  17 SW13      29.98R
MILFORD        PTCLDY    76  36  23 SW14      30.00R
MOAB/CYNLANDS  CLEAR     77  47  34 SW7       29.97R
PRICE          CLOUDY    75  41  29 E3        30.05R
ST GEORGE      CLEAR     88  39  18 SW10      29.89R
KANAB          PTCLDY    72  46  40 CALM      30.09R

$$

REGIONAL REPORTS     COLORADO/ARIZONA

CITY           SKY/WX    TMP DP  RH WIND       PRES   REMARKS
CRAIG, CO      PTCLDY    60  50  69 SE7       30.13R
GRAND JUNCTION PTCLDY    75  51  43 E3        30.01R
RIFLE          PTCLDY    70  51  51 E10       30.09R
MONTROSE       CLOUDY    73  48  41 S15       30.13R
CORTEZ         MOCLDY    71  50  47 CALM      30.15R
PAGE, AZ       CLOUDY    82  53  36 S15G23    30.00R
GRAND CANYON   MOCLDY    62  42  47 SW3       30.22R
KINGMAN        PTCLDY    78  35  21 S9        29.97R
FLAGSTAFF      PTCLDY    61  40  45 SW5       30.27R

$$

REGIONAL REPORTS    NEVADA/IDAHO/WYOMING

CITY           SKY/WX    TMP DP  RH WIND       PRES   REMARKS
LAS VEGAS, NV  PTCLDY    93  38  14 S12G21    29.77R
ELY            PTCLDY    75  30  19 S21       30.02R
ELKO           CLEAR     73  23  15 S5        29.86R
POCATELLO, ID  PTCLDY    72  48  42 CALM      29.83S
BURLEY         PTCLDY    61  49  64 CALM      29.77F
EVANSTON, WY   PTCLDY    67  33  28 S12       30.10R
ROCK SPRINGS   MOCLDY    71  38  29 W13G24    30.10R
KEMMERER       PTCLDY    63  32  31 W5        30.12S

$$


USA.gov is the U.S. government's official web portal to all federal, state and local government web resources and services.